Regional Weather Roundup
Issued by NWS

Home | Current Version | Previous Version | Graphics & Text | Print | Product List | Glossary On
Versions: 1 2 3 4 5 6 7 8 9 10 11 12 13 14 15 16 17 18 19 20 21 22 23 24 25 26 27 28 29 30 31 32 33 34 35 36 37 38 39 40 41 42 43 44 45 46 47 48 49 50
000
ASUS43 KIND 190500
RWRIN

WEATHER ROUNDUP FOR INDIANA
NATIONAL WEATHER SERVICE INDIANAPOLIS IN
100 AM EDT SAT AUG 19 2017

NOTE: "FAIR" INDICATES FEW OR NO CLOUDS BELOW 12,000 FEET WITH NO
SIGNIFICANT WEATHER AND/OR OBSTRUCTIONS TO VISIBILITY.

* - STATION DOES NOT REPORT WEATHER SUCH AS PRECIPITATION OR FOG.

+ - STATION NOT QUALITY CONTROLLED BY THE NATIONAL WEATHER SERVICE.
    USE DATA WITH CAUTION...ESPECIALLY DEWPOINT AND RELATIVE
    HUMIDITY OBSERVATIONS.

INZ001>003-010>013-019-020-190600-
NORTHWEST INDIANA

CITY           SKY/WX    TMP DP  RH WIND       PRES   REMARKS
MICHIGAN CITY+ MOCLDY    63  63 100 CALM      29.89S
MONTICELLO +   CLOUDY    68  64  88 SW5       29.90S
RENSSELAER +   FAIR      66  61  82 S5        29.89F

$$

LMZ046-743>745-190600-
SOUTHERN LAKE MICHIGAN

STATION/POSITION TIME  TEMP    WIND        PRES    WAVE
                       AIR SEA DIR/SP/G            HT
                 (UTC) (F)     (DEG/KT/KT) (MB)    (FT)
BURNS HARBOR     0440   74     240/  4/  6 1012.2S
MICHIGAN CITY    0430   70     140/  4/  5   N/A
5NW MICH CITY    0450   72 74  180/  4/  4   N/A     1

$$

INZ004-005-014>016-021>024-190600-
NORTH CENTRAL INDIANA

CITY           SKY/WX    TMP DP  RH WIND       PRES   REMARKS
GOSHEN         FAIR      64  61  90 S5        29.89F
PERU/GRISSOM   FAIR      66  65  97 SW7       29.91S
SOUTH BEND     FAIR      64  63  96 CALM      29.89S

$$

INZ006>009-017-018-025>027-190600-
NORTHEAST INDIANA

CITY           SKY/WX    TMP DP  RH WIND       PRES   REMARKS
FORT WAYNE     FAIR      64  61  90 SW5       29.90F
KENDALLVILLE + FAIR      62  62 100 CALM      29.91S FOG

$$

INZ028-029-035-036-043>045-051>053-190600-
WEST CENTRAL INDIANA

CITY           SKY/WX    TMP DP  RH WIND       PRES   REMARKS
LAFAYETTE      FAIR      67  65  93 CALM      29.90F
TERRE HAUTE    FAIR      68  64  87 S3        29.94S

$$

INZ030>032-037>040-046>048-054>057-064-065-190600-
CENTRAL INDIANA

CITY           SKY/WX    TMP DP  RH WIND       PRES   REMARKS
GREENWOOD *+   FAIR      64  62  92 CALM      29.95S
INDIANAPOLIS   MOCLDY    70  63  78 SW6       29.93S
-EAGLE CREEK   FAIR      72  62  71 SW3       29.93S
KOKOMO +       FAIR      67  64  90 SW7       29.93S
MT COMFORT *+  FAIR      66  63  88 SW3       29.95R
SHELBYVILLE    FAIR      66  61  84 SW3       29.94R

$$

INZ033-034-041-042-049-050-058-059-190600-
EAST CENTRAL INDIANA

CITY           SKY/WX    TMP DP  RH WIND       PRES   REMARKS
MUNCIE         FAIR      70  62  76 SW5       29.93S
RICHMOND +     FAIR      63  63 100 W6        29.97R

$$

INZ060-061-067>069-081>083-085>088-190600-
SOUTHWEST INDIANA

CITY           SKY/WX    TMP DP  RH WIND       PRES   REMARKS
EVANSVILLE     FAIR      74  66  76 CALM      29.97R
HUNTINGBURG +  FAIR      70  67  90 CALM      29.97R

$$

INZ062-063-066-070>080-084-089>092-190600-
SOUTH CENTRAL AND SOUTHEAST INDIANA

CITY           SKY/WX    TMP DP  RH WIND       PRES   REMARKS
BLOOMINGTON    FAIR      73  62  68 W6        29.96R
MADISON *+     FAIR      68  63  83 SW3       29.98S
SEYMOUR +      FAIR      68  64  88 CALM      29.96R

$$





USA.gov is the U.S. government's official web portal to all federal, state and local government web resources and services.